Regional Weather Roundup
Issued by NWS Kansas City/Pleasant Hill, MO

Home | Current Version | Previous Version | Graphics & Text | Print | Product List | Glossary Off
Versions: 1 2 3 4 5 6 7 8 9 10 11 12 13 14 15 16 17 18 19 20 21 22 23 24 25 26 27 28 29 30 31 32 33 34 35 36 37 38 39 40 41 42 43 44 45 46 47 48 49 50

911
ASUS43 KEAX 280110
RWREAX

WEATHER ROUNDUP FOR EASTERN KANSAS AND NORTHWEST MISSOURI
NATIONAL WEATHER SERVICE KANSAS CITY/PLEASANT HILL MO
800 PM CDT WED JUL 27 2016

KSZ040-057-103>105-MOZ028-029-037-043-280200-
...KANSAS CITY METROPOLITAN AREA...

CITY           SKY/WX    TMP DP  RH WIND       PRES   REMARKS
K.C. INTL      MOCLDY    85  71  63 W3        29.91S HX  90
K.C. DOWNTOWN  PTCLDY    87  71  58 N5        29.89S HX  93
LEES SUMMIT    CLOUDY    86  73  65 E5        29.91S HX  93
OLATHE - IXD     N/A     85  70  60 NW6       29.92F
OLATHE - OJC   PTCLDY    86  67  52 NW5       29.92S
LAWRENCE       PTCLDY    85  76  74 CALM      29.91S HAZE    HX  94

$$

MOZ001>008-011>017-020>025-030>033-038>040-044>046-053-054-280200-
...NORTHERN AND CENTRAL MISSOURI...

CITY           SKY/WX    TMP DP  RH WIND       PRES   REMARKS
ST. JOSEPH     PTCLDY    85  71  63 CALM      29.90R HX  90
MOSBY          PTCLDY    82  72  69 CALM      29.90R
WHITEMAN AFB   PTCLDY    83  79  88 S3        29.89S HX  94
CLINTON        CLEAR     82  75  78 CALM      29.91S
SEDALIA        CLEAR     85  73  67 CALM      29.91S HX  91
WARSAW         NOT AVBL
CHILLICOTHE      N/A     86  73  65 NE3       29.91S HX  93
KIRKSVILLE     CLEAR     84  71  65 W3        29.92S

$$

MOZ041-047>049-056>058-063>065-088>090-097-280200-
...EASTERN AND SOUTHERN MISSOURI...

CITY           SKY/WX    TMP DP  RH WIND       PRES   REMARKS
ST. LOUIS INTL MOCLDY    85  72  65 S5        29.91R HX  91
SPIRIT OF STL  CLOUDY    82  74  76 CALM      29.88S
COLUMBIA       CLEAR     84  76  76 S3        29.89F HX  93
JEFFERSON CITY CLOUDY    85  78  80 CALM      29.87F HX  96
ROLLA          CLOUDY    82  74  76 SW5       29.91F
OSAGE BEACH    CLOUDY    84  77  79 S5        29.91F HX  94
SPRINGFIELD    CLOUDY    81  74  79 CALM      29.95R
BRANSON        MOCLDY    81  77  89 CALM      29.96R
JOPLIN         CLEAR     79  72  79 SE12      29.93S
WEST PLAINS    CLOUDY    74  70  87 W6        29.97F

$$

IAZ060-094-KSZ022-034>040-054-083-096-NEZ052-066-093-280200-
...KANSAS...SOUTHEAST NEBRASKA AND IOWA...

CITY           SKY/WX    TMP DP  RH WIND       PRES   REMARKS
TOPEKA         CLEAR     86  71  60 E3        29.91S HX  91
MANHATTAN      CLEAR     86  70  58 CALM      29.92S HX  90
EMPORIA        CLEAR     86  73  65 E3        29.92S HX  93
CHANUTE        CLOUDY    86  76  71 N3        29.91S HX  96
WICHITA        PTCLDY    88  68  51 E6        29.92S HX  91
OMAHA          MOCLDY    84  71  65 N6        29.92S
LINCOLN        CLEAR     84  69  60 N9        29.95R
FALLS CITY     CLEAR     83  72  69 N5        29.91R
LAMONI         PTCLDY    81  73  76 CALM      29.92S
DES MOINES     PTCLDY    83  67  58 CALM      29.91R

$$





USA.gov is the U.S. government's official web portal to all federal, state and local government web resources and services.